User: anonymous   Login
Location: Unspecified
(0.0000°N, 0.0000°E)
Time: 06:32:09
(UTC+00:00)
Language:

SWISSCUBE - Orbit

View from above orbital plane
View from above orbital plane
View from above satellite
View from above satellite

Ground track
Ground track

The orbit data is extracted from the following two-line orbital elements,

1 35932U 09051B   15188.31391257  .00000685  00000-0  16833-3 0  9994
2 35932 098.4108 307.1741 0006434 277.7633 082.2833 14.55447407306892
Epoch (UTC): 07 July 2015 07:32:02
Eccentricity: 0.0006434
inclination: 98.4108°
perigee height: 703 km
apogee height: 712 km
right ascension of ascending node: 307.1741°
argument of perigee: 277.7633°
revolutions per day: 14.55447407
mean anomaly at epoch: 82.2833°
orbit number at epoch: 30689

The dashed part of the orbit path shows where the satellite is in the earth's shadow,  

DLR